When you browse on this site, cookies collect data to enhance your experience and personalize the content and advertising you see.
Visit our Privacy Policy to learn more. By continuing to use the site, you agree to this use of cookies and data.
  • In Schweiz
  • Länderverzeichnis
  • Für 7 Tage
  • Wassertemperatur
  • Wetterkarte
  • Widgets
  • user-avatar
    Anmelden

    Stündliche Wetter Tuin-Fols

    Heute, 8 Dezember, Sonntag

    Zeit Temperatur Niederschläge Wind Luftdruck Luftfeuchtigkeit
    00:00 +3°C° 1.9 mm 6 m/S 659 mmHg 87%
    01:00 +2°C° 1.9 mm 6 m/S 658 mmHg 91%
    02:00 +2°C° 0.2 mm 5 m/S 659 mmHg 86%
    03:00 +2°C° 0.2 mm 5 m/S 659 mmHg 81%
    04:00 +4°C° 0.2 mm 4 m/S 659 mmHg 76%
    05:00 +3°C° 0 mm 5 m/S 659 mmHg 76%
    06:00 +3°C° 0 mm 5 m/S 659 mmHg 76%
    07:00 +2°C° 0 mm 5 m/S 660 mmHg 76%
    08:00 +3°C° 0 mm 6 m/S 660 mmHg 77%
    09:00 +3°C° 0 mm 6 m/S 660 mmHg 78%
    10:00 +3°C° 0 mm 7 m/S 661 mmHg 79%
    11:00 +3°C° 0.1 mm 7 m/S 661 mmHg 80%
    12:00 +4°C° 0.1 mm 6 m/S 660 mmHg 81%
    13:00 +4°C° 0.1 mm 6 m/S 660 mmHg 81%
    14:00 +3°C° 0 mm 6 m/S 660 mmHg 81%
    15:00 +3°C° 0 mm 6 m/S 661 mmHg 80%
    16:00 +3°C° 0 mm 6 m/S 661 mmHg 80%
    17:00 +2°C° 0 mm 6 m/S 661 mmHg 82%
    18:00 +2°C° 0 mm 7 m/S 661 mmHg 84%
    19:00 0°C° 0 mm 7 m/S 661 mmHg 87%
    20:00 +1°C° 0 mm 6 m/S 662 mmHg 87%
    21:00 +1°C° 0 mm 6 m/S 663 mmHg 87%
    22:00 +1°C° 0 mm 6 m/S 663 mmHg 87%
    23:00 +1°C° 0 mm 6 m/S 663 mmHg 88%

    Morgen, 9 Dezember, Montag

    Zeit Temperatur Niederschläge Wind Luftdruck Luftfeuchtigkeit
    00:00 0°C° 0 mm 5 m/S 663 mmHg 89%
    01:00 0°C° 0 mm 5 m/S 664 mmHg 90%
    02:00 0°C° 0 mm 5 m/S 664 mmHg 88%
    03:00 0°C° 0 mm 4 m/S 664 mmHg 87%
    04:00 0°C° 0 mm 4 m/S 664 mmHg 86%
    05:00 0°C° 0 mm 4 m/S 665 mmHg 85%
    06:00 0°C° 0 mm 4 m/S 665 mmHg 84%
    07:00 -1°C° 0 mm 4 m/S 665 mmHg 84%
    08:00 0°C° 0 mm 4 m/S 666 mmHg 81%
    09:00 0°C° 0 mm 4 m/S 666 mmHg 79%
    10:00 +1°C° 0 mm 4 m/S 666 mmHg 77%
    11:00 +1°C° 0 mm 4 m/S 666 mmHg 74%
    12:00 +1°C° 0 mm 4 m/S 666 mmHg 71%
    13:00 +3°C° 0 mm 4 m/S 666 mmHg 68%
    14:00 +2°C° 0 mm 3 m/S 666 mmHg 71%
    15:00 +2°C° 0 mm 2 m/S 666 mmHg 75%
    16:00 +2°C° 0 mm 2 m/S 666 mmHg 78%
    17:00 +2°C° 0 mm 1 m/S 666 mmHg 80%
    18:00 +1°C° 0 mm 1 m/S 666 mmHg 83%
    19:00 +1°C° 0 mm 1 m/S 667 mmHg 85%
    20:00 +1°C° 0 mm 1 m/S 667 mmHg 84%
    21:00 +1°C° 0 mm 1 m/S 667 mmHg 82%
    22:00 -1°C° 0 mm 2 m/S 667 mmHg 80%
    23:00 -2°C° 0 mm 2 m/S 667 mmHg 78%

    übermorgen, 10 Dezember, Dienstag

    Zeit Temperatur Niederschläge Wind Luftdruck Luftfeuchtigkeit
    00:00 0°C° 0 mm 1 m/S 667 mmHg 77%
    01:00 0°C° 0 mm 1 m/S 667 mmHg 75%
    02:00 -1°C° 0 mm 1 m/S 667 mmHg 74%
    03:00 -1°C° 0 mm 1 m/S 667 mmHg 73%
    04:00 -1°C° 0 mm 1 m/S 667 mmHg 72%
    05:00 -1°C° 0 mm 1 m/S 667 mmHg 71%
    06:00 -1°C° 0 mm 1 m/S 667 mmHg 69%
    07:00 -1°C° 0 mm 1 m/S 667 mmHg 68%
    08:00 +1°C° 0 mm 1 m/S 667 mmHg 63%
    09:00 +1°C° 0 mm 2 m/S 668 mmHg 58%
    10:00 +3°C° 0 mm 2 m/S 668 mmHg 52%
    11:00 +4°C° 0 mm 2 m/S 668 mmHg 50%
    12:00 +5°C° 0 mm 2 m/S 668 mmHg 48%
    13:00 +6°C° 0 mm 2 m/S 668 mmHg 46%
    14:00 +4°C° 0 mm 2 m/S 667 mmHg 53%
    15:00 +3°C° 0 mm 2 m/S 667 mmHg 61%
    16:00 0°C° 0 mm 3 m/S 666 mmHg 68%
    17:00 0°C° 0 mm 3 m/S 666 mmHg 69%
    18:00 0°C° 0 mm 3 m/S 666 mmHg 70%
    19:00 -1°C° 0 mm 3 m/S 666 mmHg 72%
    20:00 -1°C° 0 mm 3 m/S 666 mmHg 72%
    21:00 -1°C° 0 mm 3 m/S 666 mmHg 73%
    22:00 -1°C° 0 mm 3 m/S 665 mmHg 74%
    23:00 -1°C° 0 mm 3 m/S 665 mmHg 75%

    11 Dezember, Mittwoch

    Zeit Temperatur Niederschläge Wind Luftdruck Luftfeuchtigkeit
    00:00 -1°C° 0 mm 2 m/S 665 mmHg 76%
    01:00 -1°C° 0 mm 2 m/S 665 mmHg 78%
    02:00 -1°C° 0.1 mm 2 m/S 665 mmHg 80%
    03:00 -1°C° 0.1 mm 2 m/S 664 mmHg 82%
    04:00 -1°C° 0.1 mm 2 m/S 664 mmHg 85%
    05:00 -1°C° 0.5 mm 2 m/S 665 mmHg 89%
    06:00 +1°C° 0.5 mm 1 m/S 665 mmHg 93%
    07:00 +1°C° 0.5 mm 1 m/S 665 mmHg 97%
    08:00 +1°C° 0.3 mm 2 m/S 665 mmHg 95%
    09:00 +1°C° 0.3 mm 2 m/S 666 mmHg 94%
    10:00 +2°C° 0.3 mm 2 m/S 666 mmHg 92%
    11:00 +1°C° 0 mm 3 m/S 666 mmHg 89%
    12:00 +1°C° 0 mm 4 m/S 666 mmHg 86%
    13:00 +1°C° 0 mm 5 m/S 666 mmHg 82%
    14:00 +1°C° 0 mm 4 m/S 666 mmHg 85%
    15:00 0°C° 0 mm 4 m/S 666 mmHg 87%
    16:00 +1°C° 0 mm 3 m/S 667 mmHg 89%
    17:00 +1°C° 0 mm 3 m/S 667 mmHg 90%
    18:00 +1°C° 0 mm 3 m/S 668 mmHg 92%
    19:00 +1°C° 0 mm 3 m/S 668 mmHg 93%
    20:00 +1°C° 0 mm 2 m/S 668 mmHg 91%
    21:00 +1°C° 0 mm 2 m/S 668 mmHg 89%
    22:00 +1°C° 0 mm 2 m/S 668 mmHg 87%
    23:00 +1°C° 0 mm 2 m/S 668 mmHg 85%

    12 Dezember, Donnerstag

    Zeit Temperatur Niederschläge Wind Luftdruck Luftfeuchtigkeit
    00:00 -1°C° 0 mm 2 m/S 668 mmHg 84%
    01:00 -1°C° 0 mm 2 m/S 668 mmHg 83%
    02:00 -1°C° 0 mm 2 m/S 668 mmHg 84%
    03:00 -1°C° 0 mm 2 m/S 668 mmHg 84%
    04:00 -2°C° 0 mm 2 m/S 667 mmHg 84%
    05:00 -2°C° 0 mm 2 m/S 667 mmHg 84%
    06:00 -2°C° 0 mm 2 m/S 668 mmHg 84%
    07:00 -2°C° 0 mm 2 m/S 668 mmHg 84%
    08:00 +1°C° 0 mm 2 m/S 668 mmHg 78%
    09:00 +2°C° 0 mm 2 m/S 668 mmHg 72%
    10:00 +3°C° 0 mm 2 m/S 669 mmHg 66%
    11:00 +4°C° 0 mm 2 m/S 668 mmHg 65%
    12:00 +5°C° 0 mm 2 m/S 668 mmHg 63%
    13:00 +5°C° 0 mm 2 m/S 668 mmHg 62%
    14:00 +4°C° 0.2 mm 2 m/S 668 mmHg 72%
    15:00 +3°C° 0.2 mm 2 m/S 667 mmHg 83%
    16:00 +3°C° 0.2 mm 2 m/S 667 mmHg 94%
    17:00 +3°C° 0.4 mm 2 m/S 667 mmHg 93%
    18:00 +2°C° 0.4 mm 3 m/S 667 mmHg 91%
    19:00 +3°C° 0.4 mm 3 m/S 667 mmHg 90%
    20:00 +3°C° 0.5 mm 3 m/S 667 mmHg 89%
    21:00 +3°C° 0.5 mm 3 m/S 668 mmHg 88%
    22:00 +4°C° 0.5 mm 4 m/S 668 mmHg 87%
    23:00 +4°C° 0.4 mm 3 m/S 667 mmHg 88%

    13 Dezember, Freitag

    Zeit Temperatur Niederschläge Wind Luftdruck Luftfeuchtigkeit
    00:00 +4°C° 0.4 mm 3 m/S 667 mmHg 88%
    01:00 +3°C° 0.4 mm 3 m/S 666 mmHg 88%
    02:00 +3°C° 1 mm 3 m/S 666 mmHg 89%
    03:00 +3°C° 1 mm 3 m/S 665 mmHg 89%
    04:00 +3°C° 1 mm 3 m/S 665 mmHg 90%
    05:00 +3°C° 0.2 mm 5 m/S 665 mmHg 87%
    06:00 +4°C° 0.2 mm 6 m/S 665 mmHg 85%
    07:00 +4°C° 0.2 mm 7 m/S 665 mmHg 82%
    08:00 +4°C° 0.3 mm 7 m/S 665 mmHg 84%
    09:00 +4°C° 0.3 mm 7 m/S 665 mmHg 86%
    10:00 +4°C° 0.3 mm 7 m/S 665 mmHg 88%
    11:00 +4°C° 0 mm 8 m/S 665 mmHg 83%
    12:00 +5°C° 0 mm 8 m/S 666 mmHg 78%
    13:00 +5°C° 0 mm 9 m/S 666 mmHg 73%
    14:00 +4°C° 0 mm 8 m/S 666 mmHg 75%
    15:00 +3°C° 0 mm 7 m/S 666 mmHg 77%
    16:00 +2°C° 0 mm 6 m/S 666 mmHg 78%
    17:00 +2°C° 0 mm 5 m/S 667 mmHg 82%
    18:00 +1°C° 0 mm 4 m/S 667 mmHg 86%
    19:00 0°C° 0 mm 4 m/S 667 mmHg 91%
    20:00 +1°C° 0 mm 3 m/S 667 mmHg 91%
    21:00 +1°C° 0 mm 3 m/S 667 mmHg 92%
    22:00 +1°C° 0 mm 3 m/S 668 mmHg 93%
    23:00 +1°C° 0 mm 2 m/S 667 mmHg 92%
    Mehr zeigen